SCP
0 0 0 0 0 0 0 0 0 0 0 0 0 0 0 0 0 0 0 0 0 0 0 0 0 0 0 0 0 0 0 0 0 0 0 0 0 0 0 0 0 0 0
0 0 0 0 0 0 0 0 0 0 0 0 0 0 0 0 0 0 0 0 0 0 0 0 0 0 0 0 0 0 0 0 0 0 0 0 0 0 0 0 0 0 0
0 0 0 0 0 0 0 0 0 0 0 0 0 0 0 0 0 0 0 0 0 0 0 0 0 0 0 0 0 0 0 0 0 0 0 0 0 0 0 0 0 0 0
0 0 0 0 0 0 0 0 0 0 0 0 0 0 0 0 0 0 0 0 0 0 0 0 0 0 0 0 0 0 0 0 0 0 0 0 0 0 0 0 0 0 0
0 0 0 0 0 0 0 0 0 0 0 0 0 0 0 0 0 0 0 0 0 0 0 0 0 0 0 0 0 0 0 0 0 0 0 0 0 0 0 0 0 0 0
0 0 0 0 0 0 0 0 0 0 0 0 0 0 0 0 0 0 0 0 0 0 0 0 0 0 0 0 0 0 0 0 0 0 0 0 0 0 0 0 0 0 0
0 0 0 0 0 0 0 0 0 0 0 0 0 0 0 0 0 0 0 0 0 0 0 0 0 0 0 0 0 0 0 0 0 0 0 0 0 0 0 0 0 0 0
0 0 0 0 0 0 0 0 0 0 0 0 0 0 0 0 0 0 0 0 0 0 0 0 0 0 0 0 0 0 0 0 0 0 0 0 0 0 0 0 0 0 0
0 0 0 0 0 0 0 0 0 0 0 0 0 0 0 0 0 0 0 0 0 0 0 0 0 0 0 0 0 0 0 0 0 0 0 0 0 0 0 0 0 0 0
0 0 0 0 0 0 0 0 0 0 0 0 0 0 0 0 0 0 0 0 0 0 0 0 0 0 0 0 0 0 0 0 0 0 0 0 0 0 0 0 0 0 0
0 0 0 0 0 0 0 0 0 0 0 0 0 0 0 0 0 0 0 0 0 0 0 0 0 0 0 0 0 0 0 0 0 0 0 0 0 0 0 0 0 0 0
0 0 0 0 0 0 0 0 0 0 0 0 0 0 0 0 0 0 0 0 0 0 0 0 0 0 0 0 0 0 0 0 0 0 0 0 0 0 0 0 0 0 0
0 0 0 0 0 0 0 0 0 0 0 0 0 0 0 0 0 0 0 0 0 0 0 0 0 0 0 0 0 0 0 0 0 0 0 0 0 0 0 0 0 0 0
0 0 0 0 0 0 0 0 0 0 0 0 0 0 0 0 0 0 0 0 0 0 0 0 0 0 0 0 0 0 0 0 0 0 0 0 0 0 0 0 0 0 0
0 0 0 0 0 0 0 0 0 0 0 0 0 0 0 0 0 0 0 0 0 0 0 0 0 0 0 0 0 0 0 0 0 0 0 0 0 0 0 0 0 0 0
0 0 0 0 0 0 0 0 0 0 0 0 0 0 0 0 0 0 0 0 0 0 0 0 0 0 0 0 0 0 0 0 0 0 0 0 0 0 0 0 0 0 0
0 0 0 0 0 0 0 0 0 0 0 0 0 0 0 0 0 0 0 0 0 0 0 0 0 0 0 0 0 0 0 0 0 0 0 0 0 0 0 0 0 0 0
0 0 0 0 0 0 0 0 0 0 0 0 0 0 0 0 0 0 0 0 0 0 0 0 0 0 0 0 0 0 0 0 0 0 0 0 0 0 0 0 0 0 0
0 0 0 0 0 0 0 0 0 0 0 0 0 0 0 0 0 0 0 0 0 0 0 0 0 0 0 0 0 0 0 0 0 0 0 0 0 0 0 0 0 0 0
0 0 0 0 0 0 0 0 0 0 0 0 0 0 0 0 0 0 0 0 0 0 0 0 0 0 0 0 0 0 0 0 0 0 0 0 0 0 0 0 0 0 0
0 0 0 0 0 0 0 0 0 0 0 0 0 0 0 0 0 0 0 0 0 0 0 0 0 0 0 0 0 0 0 0 0 0 0 0 0 0 0 0 0 0 0
0 0 0 0 0 0 0 0 0 0 0 0 0 0 0 0 0 0 0 0 0 0 0 0 0 0 0 0 0 0 0 0 0 0 0 0 0 0 0 0 0 0 0
0 0 0 0 0 0 0 0 0 0 0 0 0 0 0 0 0 0 0 0 0 0 0 0 0 0 0 0 0 0 0 0 0 0 0 0 0 0 0 0 0 0 0
0 0 0 0 0 0 0 0 0 0 0 0 0 0 0 0 0 0 0 0 0 0 0 0 0 0 0 0 0 0 0 0 0 0 0 0 0 0 0 0 0 -0 -0
0 0 0 0 0 0 0 0 0 0 0 0 0 0 0 0 0 0 0 0 0 0 0 0 0 0 0 0 0 0 0 0 0 0 0 0 0 0 0 -0 -0 -0 -0
0 0 0 0 0 0 0 0 0 0 0 0 0 0 0 0 0 0 0 0 0 0 0 0 0 0 0 0 0 0 0 0 0 0 0 0 0 -0 -0 -0 -0 -0 -0
Wind_Speed_500mb
76 76 83 86 83 82 74 70 67 65 65 63 59 58 57 55 53 52 49 45 42 39 36 33 30 28 26 24 24 26 27 28 32 36 38 42 49 55 59 62 64 65 66
70 73 78 83 85 83 77 72 69 66 65 63 62 60 59 56 55 53 50 46 41 38 36 33 30 28 26 26 26 27 30 33 38 43 47 49 55 58 63 66 66 69 72
67 68 74 81 83 83 79 74 69 66 65 65 63 61 59 57 54 49 45 42 39 37 34 31 29 28 27 28 29 31 33 37 42 47 54 56 60 60 65 67 72 76 75
63 65 68 75 79 82 81 75 69 66 66 65 62 58 57 54 51 48 46 42 40 37 33 31 29 28 29 30 32 34 37 40 44 48 53 56 57 61 67 71 79 83 94
60 61 63 66 74 80 81 74 69 67 64 60 58 56 54 51 49 47 44 41 39 36 34 32 30 30 31 33 34 36 38 40 43 47 51 55 60 66 69 76 88 94 90
58 57 56 61 70 77 78 74 69 67 63 59 57 55 55 51 47 44 41 40 38 36 34 32 32 32 33 33 33 35 37 38 40 44 50 55 60 63 72 77 74 92 99
53 53 53 55 63 70 74 74 71 68 63 60 57 55 53 49 47 45 43 41 38 36 34 33 32 31 29 29 32 34 34 35 40 42 49 51 60 61 61 76 86 96 105
49 49 50 52 57 64 68 72 72 69 65 60 56 53 52 50 48 49 45 42 39 36 33 31 29 27 26 29 30 32 36 40 41 45 48 54 58 61 70 80 91 101 111
46 44 46 49 54 59 66 71 73 69 64 59 56 55 53 51 50 51 47 41 36 34 31 27 24 22 23 27 31 37 42 45 50 54 58 61 64 71 76 89 96 97 110
40 40 41 45 49 55 60 65 69 66 64 62 61 56 55 55 51 47 38 35 35 30 26 22 20 21 24 21 31 40 45 55 63 66 67 70 74 78 79 75 79 83 86
35 36 39 42 46 51 59 66 69 69 66 64 61 57 54 43 31 32 35 32 27 24 21 19 19 20 15 17 38 40 37 62 66 73 77 79 77 76 74 69 65 66 73
31 35 39 42 46 50 56 64 65 67 68 68 66 60 47 36 24 28 29 29 24 21 17 19 20 22 31 44 45 47 62 67 70 74 75 74 74 73 70 65 62 60 59
32 36 41 45 49 54 60 63 66 67 71 72 67 61 53 46 43 37 28 20 19 17 19 21 31 38 44 49 52 59 62 64 67 70 71 71 67 64 61 60 58 59 64
35 41 45 48 54 59 62 63 65 70 72 68 62 55 49 40 28 20 13 13 19 21 24 30 37 43 48 53 51 52 56 59 61 62 61 59 57 57 57 58 63 66 72
39 43 47 52 57 61 60 58 61 60 58 61 57 50 44 34 22 16 8 9 22 23 29 34 38 41 43 47 49 52 53 53 52 50 51 53 54 55 55 58 60 64 72
43 47 50 54 55 57 59 58 49 54 52 48 45 40 36 28 18 14 14 20 28 26 30 33 37 42 46 49 51 50 46 45 44 45 46 48 51 53 56 55 57 66 76
46 52 56 58 61 65 68 69 70 53 48 46 43 36 23 17 17 17 18 21 26 27 29 33 36 39 41 42 44 44 43 40 41 41 43 45 48 50 52 55 63 71 80
52 60 67 74 77 79 77 75 69 63 56 47 38 25 18 12 13 14 15 18 22 26 28 30 32 35 37 39 39 38 37 37 38 39 40 43 45 48 51 58 66 77 87
55 62 66 67 65 61 58 57 54 47 37 28 19 11 9 8 10 10 12 15 20 24 27 28 29 30 30 31 32 33 34 35 36 38 40 43 43 46 51 62 71 77 89
58 62 63 63 62 59 53 45 38 29 21 16 14 9 6 5 6 9 12 16 20 23 23 23 24 25 25 27 30 32 32 34 36 41 44 43 41 47 56 66 75 86 93
66 66 63 60 54 46 39 30 24 20 17 14 11 8 7 1 5 10 14 17 17 17 18 18 19 22 26 29 31 32 35 37 41 44 44 42 43 50 59 70 81 88 96
65 61 55 48 41 33 27 23 21 18 15 13 12 5 1 3 6 9 11 14 15 17 18 19 22 25 28 31 34 38 41 42 43 44 43 44 48 55 63 73 84 89 97
55 50 43 37 31 26 25 21 18 15 13 12 10 7 3 2 5 8 10 12 15 17 20 22 24 25 29 33 38 42 44 43 43 42 46 51 55 61 66 76 87 94 102
41 36 31 29 27 24 21 19 17 16 13 10 6 4 4 5 6 8 11 14 16 19 22 24 28 32 34 35 37 40 40 38 39 42 49 57 63 65 70 79 89 98 103
30 28 27 24 22 20 19 17 15 12 10 7 6 6 6 6 8 12 15 18 19 19 21 26 30 33 36 37 38 36 34 36 42 48 55 58 60 65 73 82 93 101 107
26 24 21 20 19 18 17 15 13 11 9 8 8 8 8 9 13 16 19 20 22 23 24 27 30 33 35 37 35 31 34 40 47 49 54 56 66 74 80 92 96 100 102
Wind_Direction_500mb
238 237 232 229 225 226 224 222 219 217 216 214 213 211 209 209 208 210 210 212 212 214 217 221 226 232 238 245 252 259 264 266 268 268 269 271 275 281 284 287 291 292 294
242 238 233 230 226 224 223 220 218 217 215 214 213 212 210 210 211 211 213 212 214 217 220 224 229 237 244 251 257 263 271 277 280 281 282 284 286 289 294 296 296 297 299
242 239 234 230 226 224 221 219 218 217 216 213 213 213 212 212 212 211 213 215 215 217 222 227 233 240 247 256 264 270 276 281 284 287 291 294 295 297 296 297 299 301 302
242 240 236 232 227 224 222 219 218 217 215 213 213 213 214 213 211 212 212 212 215 219 222 228 235 243 253 261 267 272 276 278 282 287 290 294 299 302 304 307 305 305 306
242 240 239 235 228 224 221 218 217 215 214 214 212 211 212 212 213 213 214 216 219 220 224 231 239 247 255 262 269 274 279 283 288 291 296 301 305 309 311 312 309 309 308
243 242 239 232 228 225 221 217 215 213 212 210 210 210 208 209 210 212 217 219 220 225 231 237 243 251 259 267 272 276 283 290 294 299 301 306 306 308 310 311 307 307 311
244 241 238 232 228 225 220 216 213 212 210 209 209 208 208 206 208 210 213 217 222 227 233 240 248 255 263 270 274 281 287 293 296 298 302 304 306 312 306 300 302 303 303
241 240 237 231 226 223 218 214 212 210 210 208 206 204 204 203 206 210 213 216 221 228 236 240 246 256 265 271 279 287 294 297 300 301 300 299 299 296 295 301 303 304 302
239 240 235 229 224 218 213 210 210 207 204 203 200 197 196 193 203 214 214 215 220 224 228 235 243 253 261 275 292 298 299 301 298 296 298 298 300 301 302 303 305 308 307
236 238 233 227 223 218 213 207 204 203 201 195 192 194 196 199 207 214 216 212 215 218 224 234 246 256 275 310 306 298 301 300 298 298 296 297 297 299 302 304 305 307 308
229 227 224 222 219 213 204 201 199 195 194 190 188 185 191 199 204 197 195 201 208 215 225 239 259 279 309 275 272 287 301 288 295 299 302 304 306 308 310 309 307 306 306
216 216 213 211 208 205 203 194 193 193 189 180 181 178 180 176 164 149 172 188 202 216 234 257 274 276 276 288 297 288 290 304 305 307 309 312 315 316 317 316 315 312 308
199 200 199 196 194 192 191 187 182 181 181 176 179 172 165 163 161 171 184 197 221 238 256 267 288 294 298 303 305 305 309 310 311 314 317 319 320 320 320 319 321 321 317
185 183 183 185 181 179 179 180 182 179 178 178 176 173 169 172 176 185 200 224 247 267 292 300 300 305 308 309 310 310 313 316 318 320 320 321 323 326 330 330 331 330 328
178 174 172 173 172 170 172 174 176 175 181 178 174 173 170 166 168 183 196 265 280 305 306 303 304 305 308 312 315 318 320 321 324 326 325 327 330 331 332 335 335 335 334
173 167 166 165 164 163 161 155 163 167 169 167 162 170 163 174 168 210 241 285 296 306 307 311 315 319 320 322 324 328 332 333 333 331 331 331 332 333 334 338 338 337 335
172 164 159 157 154 151 148 146 133 128 143 153 161 166 161 151 150 266 307 299 313 321 322 322 323 325 328 331 335 336 337 337 335 332 332 333 332 332 335 339 339 338 337
171 166 163 159 159 157 156 153 152 152 154 154 154 147 159 220 255 289 308 318 324 324 324 329 334 337 339 340 338 337 338 338 335 332 330 330 332 332 336 337 338 337 338
171 165 163 160 157 156 154 152 152 152 151 153 153 169 227 259 288 313 322 319 324 333 340 343 345 343 343 341 339 339 337 335 331 327 328 331 332 332 335 335 335 337 337
161 158 156 154 152 151 150 150 150 151 147 153 166 186 220 258 305 322 331 338 345 347 347 347 346 343 343 342 340 337 336 334 329 329 332 330 327 330 332 332 333 333 334
156 155 154 151 149 148 149 146 141 152 166 168 167 173 166 244 329 338 344 344 343 346 349 347 345 346 346 341 337 336 335 335 331 328 326 325 324 327 330 331 332 331 331
153 151 150 150 148 143 138 150 161 164 166 165 169 178 199 298 332 338 334 335 341 344 344 343 346 343 336 333 333 333 333 331 328 326 325 324 324 325 327 330 332 332 332
151 150 148 142 139 148 159 160 162 163 166 171 181 194 211 303 315 318 327 333 335 332 330 332 332 330 328 331 330 328 327 326 326 326 325 325 325 327 326 328 331 331 332
146 140 137 144 153 156 158 161 163 166 168 171 174 196 241 269 293 315 322 320 318 317 320 323 324 328 330 328 325 322 321 322 322 324 324 325 327 327 325 326 329 330 332
133 141 149 151 153 155 157 157 158 161 166 179 206 231 249 277 303 310 309 307 308 313 316 317 319 322 323 324 322 320 320 320 321 322 320 318 322 327 328 327 329 331 333
145 148 149 149 150 152 154 157 163 173 188 209 234 257 281 295 297 295 300 305 311 315 314 312 313 316 319 320 319 316 316 318 318 319 320 324 328 330 331 329 331 330 330
Wind_Speed_850mb
76 76 83 86 83 82 74 70 67 65 65 63 59 58 57 55 53 52 49 45 42 39 36 33 30 28 26 24 24 26 27 28 32 36 38 42 49 55 59 62 64 65 66
70 73 78 83 85 83 77 72 69 66 65 63 62 60 59 56 55 53 50 46 41 38 36 33 30 28 26 26 26 27 30 33 38 43 47 49 55 58 63 66 66 69 72
67 68 74 81 83 83 79 74 69 66 65 65 63 61 59 57 54 49 45 42 39 37 34 31 29 28 27 28 29 31 33 37 42 47 54 56 60 60 65 67 72 76 75
63 65 68 75 79 82 81 75 69 66 66 65 62 58 57 54 51 48 46 42 40 37 33 31 29 28 29 30 32 34 37 40 44 48 53 56 57 61 67 71 79 83 94
60 61 63 66 74 80 81 74 69 67 64 60 58 56 54 51 49 47 44 41 39 36 34 32 30 30 31 33 34 36 38 40 43 47 51 55 60 66 69 76 88 94 90
58 57 56 61 70 77 78 74 69 67 63 59 57 55 55 51 47 44 41 40 38 36 34 32 32 32 33 33 33 35 37 38 40 44 50 55 60 63 72 77 74 92 99
53 53 53 55 63 70 74 74 71 68 63 60 57 55 53 49 47 45 43 41 38 36 34 33 32 31 29 29 32 34 34 35 40 42 49 51 60 61 61 76 86 96 105
49 49 50 52 57 64 68 72 72 69 65 60 56 53 52 50 48 49 45 42 39 36 33 31 29 27 26 29 30 32 36 40 41 45 48 54 58 61 70 80 91 101 111
46 44 46 49 54 59 66 71 73 69 64 59 56 55 53 51 50 51 47 41 36 34 31 27 24 22 23 27 31 37 42 45 50 54 58 61 64 71 76 89 96 97 110
40 40 41 45 49 55 60 65 69 66 64 62 61 56 55 55 51 47 38 35 35 30 26 22 20 21 24 21 31 40 45 55 63 66 67 70 74 78 79 75 79 83 86
35 36 39 42 46 51 59 66 69 69 66 64 61 57 54 43 31 32 35 32 27 24 21 19 19 20 15 17 38 40 37 62 66 73 77 79 77 76 74 69 65 66 73
31 35 39 42 46 50 56 64 65 67 68 68 66 60 47 36 24 28 29 29 24 21 17 19 20 22 31 44 45 47 62 67 70 74 75 74 74 73 70 65 62 60 59
32 36 41 45 49 54 60 63 66 67 71 72 67 61 53 46 43 37 28 20 19 17 19 21 31 38 44 49 52 59 62 64 67 70 71 71 67 64 61 60 58 59 64
35 41 45 48 54 59 62 63 65 70 72 68 62 55 49 40 28 20 13 13 19 21 24 30 37 43 48 53 51 52 56 59 61 62 61 59 57 57 57 58 63 66 72
39 43 47 52 57 61 60 58 61 60 58 61 57 50 44 34 22 16 8 9 22 23 29 34 38 41 43 47 49 52 53 53 52 50 51 53 54 55 55 58 60 64 72
43 47 50 54 55 57 59 58 49 54 52 48 45 40 36 28 18 14 14 20 28 26 30 33 37 42 46 49 51 50 46 45 44 45 46 48 51 53 56 55 57 66 76
46 52 56 58 61 65 68 69 70 53 48 46 43 36 23 17 17 17 18 21 26 27 29 33 36 39 41 42 44 44 43 40 41 41 43 45 48 50 52 55 63 71 80
52 60 67 74 77 79 77 75 69 63 56 47 38 25 18 12 13 14 15 18 22 26 28 30 32 35 37 39 39 38 37 37 38 39 40 43 45 48 51 58 66 77 87
55 62 66 67 65 61 58 57 54 47 37 28 19 11 9 8 10 10 12 15 20 24 27 28 29 30 30 31 32 33 34 35 36 38 40 43 43 46 51 62 71 77 89
58 62 63 63 62 59 53 45 38 29 21 16 14 9 6 5 6 9 12 16 20 23 23 23 24 25 25 27 30 32 32 34 36 41 44 43 41 47 56 66 75 86 93
66 66 63 60 54 46 39 30 24 20 17 14 11 8 7 1 5 10 14 17 17 17 18 18 19 22 26 29 31 32 35 37 41 44 44 42 43 50 59 70 81 88 96
65 61 55 48 41 33 27 23 21 18 15 13 12 5 1 3 6 9 11 14 15 17 18 19 22 25 28 31 34 38 41 42 43 44 43 44 48 55 63 73 84 89 97
55 50 43 37 31 26 25 21 18 15 13 12 10 7 3 2 5 8 10 12 15 17 20 22 24 25 29 33 38 42 44 43 43 42 46 51 55 61 66 76 87 94 102
41 36 31 29 27 24 21 19 17 16 13 10 6 4 4 5 6 8 11 14 16 19 22 24 28 32 34 35 37 40 40 38 39 42 49 57 63 65 70 79 89 98 103
30 28 27 24 22 20 19 17 15 12 10 7 6 6 6 6 8 12 15 18 19 19 21 26 30 33 36 37 38 36 34 36 42 48 55 58 60 65 73 82 93 101 107
26 24 21 20 19 18 17 15 13 11 9 8 8 8 8 9 13 16 19 20 22 23 24 27 30 33 35 37 35 31 34 40 47 49 54 56 66 74 80 92 96 100 102
Wind_Direction_850mb
238 237 232 229 225 226 224 222 219 217 216 214 213 211 209 209 208 210 210 212 212 214 217 221 226 232 238 245 252 259 264 266 268 268 269 271 275 281 284 287 291 292 294
242 238 233 230 226 224 223 220 218 217 215 214 213 212 210 210 211 211 213 212 214 217 220 224 229 237 244 251 257 263 271 277 280 281 282 284 286 289 294 296 296 297 299
242 239 234 230 226 224 221 219 218 217 216 213 213 213 212 212 212 211 213 215 215 217 222 227 233 240 247 256 264 270 276 281 284 287 291 294 295 297 296 297 299 301 302
242 240 236 232 227 224 222 219 218 217 215 213 213 213 214 213 211 212 212 212 215 219 222 228 235 243 253 261 267 272 276 278 282 287 290 294 299 302 304 307 305 305 306
242 240 239 235 228 224 221 218 217 215 214 214 212 211 212 212 213 213 214 216 219 220 224 231 239 247 255 262 269 274 279 283 288 291 296 301 305 309 311 312 309 309 308
243 242 239 232 228 225 221 217 215 213 212 210 210 210 208 209 210 212 217 219 220 225 231 237 243 251 259 267 272 276 283 290 294 299 301 306 306 308 310 311 307 307 311
244 241 238 232 228 225 220 216 213 212 210 209 209 208 208 206 208 210 213 217 222 227 233 240 248 255 263 270 274 281 287 293 296 298 302 304 306 312 306 300 302 303 303
241 240 237 231 226 223 218 214 212 210 210 208 206 204 204 203 206 210 213 216 221 228 236 240 246 256 265 271 279 287 294 297 300 301 300 299 299 296 295 301 303 304 302
239 240 235 229 224 218 213 210 210 207 204 203 200 197 196 193 203 214 214 215 220 224 228 235 243 253 261 275 292 298 299 301 298 296 298 298 300 301 302 303 305 308 307
236 238 233 227 223 218 213 207 204 203 201 195 192 194 196 199 207 214 216 212 215 218 224 234 246 256 275 310 306 298 301 300 298 298 296 297 297 299 302 304 305 307 308
229 227 224 222 219 213 204 201 199 195 194 190 188 185 191 199 204 197 195 201 208 215 225 239 259 279 309 275 272 287 301 288 295 299 302 304 306 308 310 309 307 306 306
216 216 213 211 208 205 203 194 193 193 189 180 181 178 180 176 164 149 172 188 202 216 234 257 274 276 276 288 297 288 290 304 305 307 309 312 315 316 317 316 315 312 308
199 200 199 196 194 192 191 187 182 181 181 176 179 172 165 163 161 171 184 197 221 238 256 267 288 294 298 303 305 305 309 310 311 314 317 319 320 320 320 319 321 321 317
185 183 183 185 181 179 179 180 182 179 178 178 176 173 169 172 176 185 200 224 247 267 292 300 300 305 308 309 310 310 313 316 318 320 320 321 323 326 330 330 331 330 328
178 174 172 173 172 170 172 174 176 175 181 178 174 173 170 166 168 183 196 265 280 305 306 303 304 305 308 312 315 318 320 321 324 326 325 327 330 331 332 335 335 335 334
173 167 166 165 164 163 161 155 163 167 169 167 162 170 163 174 168 210 241 285 296 306 307 311 315 319 320 322 324 328 332 333 333 331 331 331 332 333 334 338 338 337 335
172 164 159 157 154 151 148 146 133 128 143 153 161 166 161 151 150 266 307 299 313 321 322 322 323 325 328 331 335 336 337 337 335 332 332 333 332 332 335 339 339 338 337
171 166 163 159 159 157 156 153 152 152 154 154 154 147 159 220 255 289 308 318 324 324 324 329 334 337 339 340 338 337 338 338 335 332 330 330 332 332 336 337 338 337 338
171 165 163 160 157 156 154 152 152 152 151 153 153 169 227 259 288 313 322 319 324 333 340 343 345 343 343 341 339 339 337 335 331 327 328 331 332 332 335 335 335 337 337
161 158 156 154 152 151 150 150 150 151 147 153 166 186 220 258 305 322 331 338 345 347 347 347 346 343 343 342 340 337 336 334 329 329 332 330 327 330 332 332 333 333 334
156 155 154 151 149 148 149 146 141 152 166 168 167 173 166 244 329 338 344 344 343 346 349 347 345 346 346 341 337 336 335 335 331 328 326 325 324 327 330 331 332 331 331
153 151 150 150 148 143 138 150 161 164 166 165 169 178 199 298 332 338 334 335 341 344 344 343 346 343 336 333 333 333 333 331 328 326 325 324 324 325 327 330 332 332 332
151 150 148 142 139 148 159 160 162 163 166 171 181 194 211 303 315 318 327 333 335 332 330 332 332 330 328 331 330 328 327 326 326 326 325 325 325 327 326 328 331 331 332
146 140 137 144 153 156 158 161 163 166 168 171 174 196 241 269 293 315 322 320 318 317 320 323 324 328 330 328 325 322 321 322 322 324 324 325 327 327 325 326 329 330 332
133 141 149 151 153 155 157 157 158 161 166 179 206 231 249 277 303 310 309 307 308 313 316 317 319 322 323 324 322 320 320 320 321 322 320 318 322 327 328 327 329 331 333
145 148 149 149 150 152 154 157 163 173 188 209 234 257 281 295 297 295 300 305 311 315 314 312 313 316 319 320 319 316 316 318 318 319 320 324 328 330 331 329 331 330 330